Coventry, VT

11:55 PM EST on February 23, 2017 (GMT -0500)
Newport State

Weather History for KEFK - December, 2012

Change the Weather History Date:

Saturday, December 22, 2012

  Actual Average Record
Temperature  
Mean Temperature 26 °F -  
Max Temperature 35 °F 28 °F 57 °F (1949)
Min Temperature 16 °F 9 °F -28 °F (1955)
Degree Days  
Heating Degree Days 40    
Moisture  
Dew Point 20 °F    
Average Humidity 77    
Maximum Humidity 92    
Minimum Humidity 69    
Precipitation  
Precipitation 0.00 in - - ()
Sea Level Pressure  
Sea Level Pressure 29.31 in    
Wind  
Wind Speed 8 mph (SW)    
Max Wind Speed 16 mph    
Max Gust Speed 25 mph    
Visibility 5 miles    
Events Snow    
Averages and records for this station are not official NWS values.
T = Trace of Precipitation, MM = Missing Value Source: NWS Daily Summary

Daily Weather History Graph

Daily Weather History Graph

Search for Another Location

Airport or City:

Trip Planner

Search our weather history database for the weather conditions in past years. The results will help you decide how hot, cold, wet, or windy it might be!

Date:

Astronomy

Dec. 22, 2012 Rise Set
Actual Time 7:24 AM EST 4:11 PM EST
Civil Twilight 6:50 AM EST 4:45 PM EST
Nautical Twilight 6:13 AM EST 5:22 PM EST
Astronomical Twilight 5:37 AM EST 5:57 PM EST
Moon 12:34 PM EST (12/22) 1:58 AM EST (12/22)
Length of Visible Light 9h 54m
Length of Day
8h 46m
Waxing Gibbous, 73% of the Moon is Illuminated
Dec 22
Waxing Gibbous
Dec 28
Full
Jan 4
Last Quarter
Jan 11
New
Jan 18
First Quarter

Hourly Weather History & Observations

Time (EST) Temp. Windchill Dew Point Humidity Pressure Visibility Wind Dir Wind Speed Gust Speed Precip Events Conditions
12:15 AM 35.1 °F 28.6 °F 28.4 °F 77% 29.05 in 10.0 mi South 8.1 mph - N/A   Overcast
12:35 AM 34.9 °F 29.0 °F 28.4 °F 77% 29.05 in 10.0 mi South 6.9 mph - N/A   Overcast
12:55 AM 34.9 °F 28.3 °F 28.4 °F 77% 29.05 in 10.0 mi South 8.1 mph - N/A   Overcast
1:15 AM 35.1 °F 29.3 °F 28.2 °F 76% 29.06 in 10.0 mi South 6.9 mph - N/A   Overcast
1:35 AM 35.1 °F 31.0 °F 28.0 °F 76% 29.06 in 10.0 mi South 4.6 mph - N/A   Overcast
1:55 AM 34.7 °F 30.6 °F 28.2 °F 77% 29.07 in 10.0 mi South 4.6 mph - N/A   Overcast
2:15 AM 34.9 °F 30.8 °F 28.0 °F 76% 29.07 in 10.0 mi South 4.6 mph - N/A   Overcast
2:35 AM 34.7 °F 30.6 °F 28.0 °F 77% 29.07 in 10.0 mi South 4.6 mph - N/A   Overcast
2:55 AM 34.3 °F 30.2 °F 28.0 °F 78% 29.07 in 10.0 mi South 4.6 mph - N/A   Overcast
3:15 AM 34.7 °F 29.6 °F 27.9 °F 76% 29.08 in 10.0 mi South 5.8 mph - N/A   Overcast
3:35 AM 34.3 °F 28.4 °F 27.9 °F 77% 29.07 in 10.0 mi South 6.9 mph - N/A   Overcast
4:15 AM 34.0 °F 31.0 °F 28.4 °F 80% 29.08 in 10.0 mi South 3.5 mph - N/A Snow Light Snow
4:35 AM 33.8 °F 30.8 °F 28.4 °F 81% 29.08 in 7.0 mi South 3.5 mph - N/A Snow Light Snow
4:55 AM 33.8 °F 30.8 °F 28.4 °F 81% 29.09 in 10.0 mi SSW 3.5 mph - N/A Snow Light Snow
5:15 AM 33.4 °F 28.1 °F 28.9 °F 84% 29.10 in 10.0 mi SSW 5.8 mph - N/A   Overcast
5:35 AM 33.4 °F 28.1 °F 29.1 °F 84% 29.11 in 7.0 mi South 5.8 mph - N/A Snow Light Snow
5:55 AM 32.5 °F 28.1 °F 29.7 °F 89% 29.12 in 3.0 mi SSW 4.6 mph - N/A Snow Light Snow
6:15 AM 32.4 °F 29.1 °F 30.0 °F 91% 29.13 in 2.5 mi SSW 3.5 mph - N/A Snow Light Snow
6:35 AM 32.4 °F 24.6 °F 30.2 °F 92% 29.13 in 1.2 mi SSW 9.2 mph - N/A Snow Snow
6:55 AM 32.0 °F 23.6 °F 29.7 °F 91% 29.15 in 1.8 mi SSW 10.4 mph - N/A Snow Light Snow
7:15 AM 32.0 °F 25.6 °F 28.8 °F 88% 29.16 in 7.0 mi SSW 6.9 mph - N/A Snow Light Snow
7:35 AM 31.1 °F 23.7 °F 27.3 °F 86% 29.17 in 1.8 mi West 8.1 mph 16.1 mph N/A Snow Light Snow
7:55 AM 30.4 °F 23.6 °F 25.7 °F 83% 29.19 in 3.0 mi WSW 6.9 mph - N/A Snow Light Snow
8:15 AM 30.4 °F 23.6 °F 23.9 °F 77% 29.20 in 10.0 mi SW 6.9 mph - N/A Snow Light Snow
8:35 AM 30.6 °F 22.4 °F 24.4 °F 78% 29.21 in 5.0 mi SSW 9.2 mph 17.3 mph N/A Snow Light Snow
8:55 AM 29.8 °F 21.5 °F 22.1 °F 73% 29.23 in 10.0 mi SW 9.2 mph - N/A   Overcast
9:15 AM 29.1 °F 20.6 °F 21.4 °F 73% 29.23 in 10.0 mi SW 9.2 mph - N/A   Overcast
9:35 AM 28.6 °F 19.9 °F 20.8 °F 73% 29.25 in 10.0 mi SW 9.2 mph - N/A   Overcast
9:55 AM 28.2 °F 18.3 °F 19.9 °F 71% 29.26 in 10.0 mi SW 11.5 mph 16.1 mph N/A   Overcast
10:15 AM 28.2 °F 18.9 °F 19.4 °F 70% 29.26 in 10.0 mi SW 10.4 mph - N/A   Overcast
10:35 AM 27.9 °F 19.1 °F 19.2 °F 70% 29.28 in 10.0 mi SW 9.2 mph - N/A   Overcast
10:55 AM 27.9 °F 16.8 °F 19.0 °F 69% 29.28 in 10.0 mi SW 13.8 mph - N/A   Overcast
11:15 AM 27.3 °F 16.1 °F 18.3 °F 69% 29.28 in 10.0 mi SSW 13.8 mph 17.3 mph N/A   Overcast
11:35 AM 27.0 °F 16.7 °F 18.7 °F 71% 29.28 in 10.0 mi SW 11.5 mph 16.1 mph N/A   Overcast
11:55 AM 26.6 °F 15.2 °F 18.5 °F 71% 29.29 in 10.0 mi SW 13.8 mph 17.3 mph N/A Snow Light Snow
12:15 PM 25.7 °F 14.6 °F 18.3 °F 74% 29.29 in 2.5 mi SW 12.7 mph 19.6 mph N/A Snow Light Snow
12:35 PM 25.3 °F 18.5 °F 19.6 °F 79% 29.30 in 2.5 mi SSW 5.8 mph - N/A Snow Light Snow
12:55 PM 25.0 °F 14.2 °F 18.3 °F 76% 29.31 in 4.0 mi WSW 11.5 mph - N/A Snow Light Snow
1:15 PM 24.1 °F 11.5 °F 16.5 °F 73% 29.32 in 4.0 mi WSW 15.0 mph 23.0 mph N/A Snow Light Snow
1:35 PM 23.5 °F 11.8 °F 15.8 °F 72% 29.34 in 4.0 mi WSW 12.7 mph 25.3 mph N/A Snow Light Snow
1:55 PM 23.0 °F 13.1 °F 16.5 °F 76% 29.35 in 1.2 mi West 9.2 mph 20.7 mph N/A Snow Light Snow
2:15 PM 22.6 °F 12.6 °F 16.7 °F 78% 29.36 in 0.8 mi WSW 9.2 mph - N/A Snow Light Snow
2:55 PM 22.5 °F 9.9 °F 14.2 °F 71% 29.38 in 2.5 mi West 13.8 mph 25.3 mph N/A Snow Light Snow
3:15 PM 21.9 °F 9.2 °F 13.1 °F 69% 29.40 in 2.5 mi West 13.8 mph 25.3 mph N/A Snow Light Snow
3:35 PM 21.4 °F 9.7 °F 13.3 °F 71% 29.41 in 1.8 mi WSW 11.5 mph 23.0 mph N/A Snow Light Snow
3:55 PM 21.0 °F 7.6 °F 13.1 °F 71% 29.42 in 1.5 mi WSW 15.0 mph 25.3 mph N/A Snow Light Snow
4:15 PM 20.3 °F 9.0 °F 13.5 °F 75% 29.43 in 2.5 mi WSW 10.4 mph - N/A Snow Light Snow
4:35 PM 20.3 °F 7.7 °F 13.6 °F 75% 29.43 in 2.5 mi WSW 12.7 mph 19.6 mph N/A Snow Light Snow
4:55 PM 20.3 °F 10.6 °F 13.1 °F 74% 29.45 in 2.5 mi WSW 8.1 mph - N/A Snow Light Snow
5:15 PM 19.9 °F 9.3 °F 13.6 °F 77% 29.46 in 2.5 mi WSW 9.2 mph - N/A Snow Light Snow
5:35 PM 19.9 °F 12.1 °F 13.8 °F 77% 29.47 in 2.5 mi West 5.8 mph - N/A Snow Light Snow
5:55 PM 19.9 °F 9.3 °F 13.1 °F 75% 29.48 in 3.0 mi WSW 9.2 mph 16.1 mph N/A Snow Light Snow
6:15 PM 19.9 °F 10.1 °F 13.6 °F 77% 29.48 in 2.5 mi WSW 8.1 mph - N/A Snow Light Snow
6:35 PM 19.9 °F 10.1 °F 13.3 °F 75% 29.49 in 2.0 mi SW 8.1 mph - N/A Snow Light Snow
6:55 PM 19.4 °F 11.5 °F 14.0 °F 80% 29.50 in 2.0 mi WSW 5.8 mph - N/A Snow Light Snow
7:15 PM 19.4 °F 8.6 °F 13.8 °F 79% 29.51 in 2.0 mi WSW 9.2 mph - N/A Snow Light Snow
7:35 PM 19.4 °F 8.6 °F 13.1 °F 76% 29.52 in 2.0 mi WSW 9.2 mph 16.1 mph N/A Snow Light Snow
7:55 PM 19.0 °F 8.2 °F 13.1 °F 78% 29.53 in 2.0 mi West 9.2 mph - N/A Snow Light Snow
8:15 PM 18.5 °F 10.4 °F 12.9 °F 79% 29.54 in 2.5 mi West 5.8 mph - N/A Snow Light Snow
8:35 PM 18.5 °F 9.3 °F 12.7 °F 78% 29.55 in 2.0 mi WNW 6.9 mph 17.3 mph N/A Snow Light Snow
8:55 PM 18.0 °F 7.7 °F 11.8 °F 77% 29.55 in 2.0 mi West 8.1 mph 20.7 mph N/A Snow Light Snow
9:15 PM 18.3 °F 8.2 °F 10.8 °F 72% 29.55 in 4.0 mi West 8.1 mph 17.3 mph N/A Snow Light Snow
9:35 PM 18.1 °F 7.1 °F 11.7 °F 76% 29.56 in 2.5 mi WNW 9.2 mph - N/A Snow Light Snow
9:55 PM 18.1 °F 11.3 °F 11.5 °F 75% 29.57 in 3.0 mi WNW 4.6 mph - N/A Snow Light Snow
10:15 PM 18.0 °F - 12.0 °F 78% 29.58 in 2.0 mi Calm Calm - N/A Snow Light Snow
10:35 PM 17.6 °F 8.2 °F 12.0 °F 79% 29.59 in 1.8 mi WNW 6.9 mph - N/A Snow Light Snow
10:55 PM 16.7 °F 7.2 °F 11.5 °F 80% 29.59 in 1.5 mi WNW 6.9 mph - N/A Snow Light Snow
11:15 PM 17.1 °F 2.5 °F 11.3 °F 78% 29.60 in 2.0 mi West 15.0 mph 21.9 mph N/A Snow Light Snow
11:35 PM 16.7 °F 3.2 °F 10.0 °F 75% 29.60 in 2.5 mi West 12.7 mph 20.7 mph N/A Snow Light Snow
11:55 PM 16.5 °F 1.3 °F 10.4 °F 77% 29.61 in 2.5 mi West 16.1 mph 24.2 mph N/A Snow Light Snow